This is the latest recevied weather packets stored in our database for station/object MB7UIK. If no packets are shown the sender has not sent any weather packets the latest 1 day(s).
| Time | Temp. | Humidity | Pressure | Rain* | Wind** | Luminosity | Snow |
|---|---|---|---|---|---|---|---|
| 1777965405 | 12.22° C | 100% | 1012.2 hPa | 0 mm | 3.13 m/s, 360° | - | - |
| 1777965345 | 12.22° C | 100% | 1012.3 hPa | 0 mm | 1.34 m/s, 9° | - | - |
| 1777965284 | 12.22° C | 100% | 1012.2 hPa | 0 mm | 1.79 m/s, 341° | - | - |
| 1777965224 | 12.22° C | 100% | 1012.2 hPa | 0 mm | 1.79 m/s, 355° | - | - |
| 1777965164 | 12.22° C | 100% | 1012.2 hPa | 0 mm | 2.68 m/s, 349° | - | - |
| 1777965132 | 12.22° C | 100% | 1012.2 hPa | 0 mm | 2.68 m/s, 349° | - | - |
| 1777965106 | 12.22° C | 100% | 1012.3 hPa | 0 mm | 2.24 m/s, 347° | - | - |
| 1777965045 | 12.22° C | 100% | 1012.2 hPa | 0 mm | 1.34 m/s, 360° | - | - |
| 1777964985 | 12.22° C | 100% | 1012.2 hPa | 0 mm | 1.34 m/s, 24° | - | - |
| 1777964924 | 12.22° C | 100% | 1012.2 hPa | 0 mm | 1.34 m/s, 344° | - | - |
| 1777964865 | 12.22° C | 100% | 1012.2 hPa | 0 mm | 2.24 m/s, 5° | - | - |
| 1777964831 | 12.22° C | 100% | 1012.2 hPa | 0 mm | 2.24 m/s, 5° | - | - |
| 1777964805 | 12.22° C | 100% | 1012.2 hPa | 0 mm | 2.24 m/s, 324° | - | - |
| 1777964745 | 12.22° C | 100% | 1012.2 hPa | 0 mm | 3.13 m/s, 9° | - | - |
| 1777964685 | 12.22° C | 100% | 1012.2 hPa | 0 mm | 3.13 m/s, 348° | - | - |
| 1777964625 | 12.22° C | 100% | 1012.2 hPa | 0 mm | 1.34 m/s, 30° | - | - |
| 1777964565 | 12.22° C | 100% | 1012.2 hPa | 0 mm | 1.34 m/s, 336° | - | - |
| 1777964531 | 12.22° C | 100% | 1012.2 hPa | 0 mm | 1.34 m/s, 336° | - | - |
| 1777964505 | 12.22° C | 100% | 1012.2 hPa | 0 mm | 2.68 m/s, 345° | - | - |
| 1777964445 | 12.22° C | 100% | 1012.2 hPa | 0 mm | 1.79 m/s, 13° | - | - |
| 1777964385 | 12.22° C | 100% | 1012.2 hPa | 0 mm | 1.34 m/s, 350° | - | - |
| 1777964325 | 12.22° C | 100% | 1012.2 hPa | 0 mm | 2.68 m/s, 5° | - | - |
| 1777964265 | 12.22° C | 100% | 1012.2 hPa | 0 mm | 1.34 m/s, 360° | - | - |
| 1777964233 | 12.22° C | 100% | 1012.2 hPa | 0 mm | 1.34 m/s, 360° | - | - |
| 1777964205 | 12.22° C | 100% | 1012.2 hPa | 0 mm | 2.68 m/s, 331° | - | - |
* Rain latest hour (hover to see other rain measurements)
** Current wind speed in m/s (hover to see current wind gust speed)